• In Deutschland
  • Länderverzeichnis
  • Für 7 Tage
  • Wassertemperatur
  • Satellitenkarten
  • Wetterkarte
  • Widgets
  • user-avatar
    Anmelden

    Stündliche Wetter Tibissa

    Heute, 23 Juli, Sonntag

    Zeit Temperatur Niederschläge Wind Luftdruck Luftfeuchtigkeit
    00:00 +35°C° 0,1 mm 4 m/S 690 mmHg 24%
    01:00 +34°C° 0,1 mm 4 m/S 690 mmHg 26%
    02:00 +33°C° 0 mm 4 m/S 690 mmHg 28%
    03:00 +33°C° 0 mm 3 m/S 690 mmHg 29%
    04:00 +31°C° 0 mm 2 m/S 690 mmHg 30%
    05:00 +33°C° 0 mm 3 m/S 690 mmHg 29%
    06:00 +33°C° 0 mm 3 m/S 690 mmHg 27%
    07:00 +34°C° 0 mm 3 m/S 690 mmHg 25%
    08:00 +36°C° 0 mm 4 m/S 690 mmHg 22%
    09:00 +39°C° 0 mm 5 m/S 691 mmHg 19%
    10:00 +41°C° 0 mm 6 m/S 691 mmHg 16%
    11:00 +41°C° 0 mm 5 m/S 691 mmHg 14%
    12:00 +42°C° 0 mm 5 m/S 691 mmHg 13%
    13:00 +43°C° 0 mm 4 m/S 691 mmHg 12%
    14:00 +43°C° 0 mm 4 m/S 691 mmHg 11%
    15:00 +43°C° 0 mm 3 m/S 690 mmHg 11%
    16:00 +43°C° 0 mm 3 m/S 690 mmHg 11%
    17:00 +42°C° 0 mm 3 m/S 690 mmHg 12%
    18:00 +41°C° 0 mm 4 m/S 690 mmHg 13%
    19:00 +40°C° 0 mm 4 m/S 690 mmHg 14%
    20:00 +38°C° 0 mm 4 m/S 690 mmHg 16%
    21:00 +37°C° 0 mm 4 m/S 690 mmHg 18%
    22:00 +36°C° 0 mm 3 m/S 690 mmHg 20%
    23:00 +35°C° 0 mm 4 m/S 690 mmHg 23%

    Morgen, 24 Juli, Montag

    Zeit Temperatur Niederschläge Wind Luftdruck Luftfeuchtigkeit
    00:00 +34°C° 0 mm 4 m/S 690 mmHg 25%
    01:00 +33°C° 0 mm 4 m/S 689 mmHg 28%
    02:00 +33°C° 0 mm 3 m/S 689 mmHg 30%
    03:00 +31°C° 0 mm 2 m/S 689 mmHg 32%
    04:00 +31°C° 0 mm 2 m/S 688 mmHg 34%
    05:00 +31°C° 0 mm 2 m/S 688 mmHg 33%
    06:00 +31°C° 0 mm 2 m/S 688 mmHg 32%
    07:00 +32°C° 0 mm 2 m/S 688 mmHg 31%
    08:00 +35°C° 0 mm 3 m/S 688 mmHg 26%
    09:00 +36°C° 0 mm 4 m/S 689 mmHg 21%
    10:00 +39°C° 0 mm 5 m/S 689 mmHg 16%
    11:00 +41°C° 0 mm 6 m/S 689 mmHg 14%
    12:00 +43°C° 0 mm 7 m/S 688 mmHg 13%
    13:00 +44°C° 0 mm 8 m/S 688 mmHg 12%
    14:00 +43°C° 0,1 mm 8 m/S 688 mmHg 13%
    15:00 +43°C° 0,1 mm 8 m/S 687 mmHg 14%
    16:00 +41°C° 0,1 mm 8 m/S 687 mmHg 15%
    17:00 +40°C° 0,3 mm 7 m/S 687 mmHg 20%
    18:00 +38°C° 0,3 mm 7 m/S 686 mmHg 25%
    19:00 +36°C° 0,3 mm 7 m/S 686 mmHg 29%
    20:00 +33°C° 0,4 mm 6 m/S 686 mmHg 37%
    21:00 +30°C° 0,4 mm 5 m/S 686 mmHg 44%
    22:00 +28°C° 0,4 mm 5 m/S 686 mmHg 51%
    23:00 +28°C° 0 mm 4 m/S 686 mmHg 52%

    übermorgen, 25 Juli, Dienstag

    Zeit Temperatur Niederschläge Wind Luftdruck Luftfeuchtigkeit
    00:00 +27°C° 0 mm 3 m/S 686 mmHg 52%
    01:00 +27°C° 0 mm 2 m/S 686 mmHg 53%
    02:00 +26°C° 0 mm 2 m/S 685 mmHg 54%
    03:00 +26°C° 0 mm 3 m/S 685 mmHg 56%
    04:00 +25°C° 0 mm 3 m/S 684 mmHg 58%
    05:00 +25°C° 0 mm 3 m/S 684 mmHg 58%
    06:00 +24°C° 0 mm 3 m/S 685 mmHg 59%
    07:00 +23°C° 0 mm 4 m/S 685 mmHg 59%
    08:00 +25°C° 0 mm 4 m/S 685 mmHg 52%
    09:00 +27°C° 0 mm 4 m/S 685 mmHg 44%
    10:00 +28°C° 0 mm 4 m/S 686 mmHg 37%
    11:00 +29°C° 0 mm 4 m/S 686 mmHg 33%
    12:00 +32°C° 0 mm 4 m/S 686 mmHg 29%
    13:00 +33°C° 0 mm 5 m/S 686 mmHg 26%
    14:00 +34°C° 0 mm 5 m/S 685 mmHg 25%
    15:00 +34°C° 0 mm 5 m/S 685 mmHg 24%
    16:00 +35°C° 0 mm 5 m/S 685 mmHg 23%
    17:00 +34°C° 0 mm 6 m/S 685 mmHg 25%
    18:00 +33°C° 0 mm 6 m/S 685 mmHg 28%
    19:00 +33°C° 0 mm 6 m/S 685 mmHg 30%
    20:00 +30°C° 0 mm 5 m/S 685 mmHg 36%
    21:00 +29°C° 0 mm 5 m/S 685 mmHg 42%
    22:00 +27°C° 0 mm 4 m/S 685 mmHg 48%
    23:00 +26°C° 0,1 mm 4 m/S 684 mmHg 53%

    26 Juli, Mittwoch

    Zeit Temperatur Niederschläge Wind Luftdruck Luftfeuchtigkeit
    00:00 +26°C° 0,1 mm 3 m/S 684 mmHg 57%
    01:00 +25°C° 0,1 mm 3 m/S 684 mmHg 62%
    02:00 +24°C° 0,2 mm 3 m/S 684 mmHg 64%
    03:00 +24°C° 0,2 mm 3 m/S 683 mmHg 67%
    04:00 +22°C° 0,2 mm 3 m/S 683 mmHg 69%
    05:00 +23°C° 0 mm 2 m/S 683 mmHg 70%
    06:00 +21°C° 0 mm 2 m/S 683 mmHg 70%
    07:00 +21°C° 0 mm 2 m/S 684 mmHg 71%
    08:00 +23°C° 0 mm 2 m/S 684 mmHg 66%
    09:00 +24°C° 0 mm 2 m/S 684 mmHg 61%
    10:00 +25°C° 0 mm 2 m/S 684 mmHg 56%
    11:00 +26°C° 0 mm 2 m/S 684 mmHg 51%
    12:00 +27°C° 0 mm 2 m/S 684 mmHg 45%
    13:00 +28°C° 0 mm 3 m/S 684 mmHg 40%
    14:00 +28°C° 0,5 mm 4 m/S 684 mmHg 40%
    15:00 +28°C° 0,5 mm 4 m/S 684 mmHg 40%
    16:00 +28°C° 0,5 mm 5 m/S 684 mmHg 40%
    17:00 +27°C° 0,2 mm 5 m/S 684 mmHg 42%
    18:00 +27°C° 0,2 mm 6 m/S 684 mmHg 44%
    19:00 +26°C° 0,2 mm 6 m/S 684 mmHg 47%
    20:00 +25°C° 0 mm 5 m/S 684 mmHg 52%
    21:00 +23°C° 0 mm 5 m/S 684 mmHg 56%
    22:00 +21°C° 0 mm 5 m/S 685 mmHg 61%
    23:00 +21°C° 0 mm 4 m/S 685 mmHg 63%

    27 Juli, Donnerstag

    Zeit Temperatur Niederschläge Wind Luftdruck Luftfeuchtigkeit
    00:00 +20°C° 0 mm 4 m/S 684 mmHg 64%
    01:00 +20°C° 0 mm 3 m/S 684 mmHg 66%
    02:00 +20°C° 0 mm 3 m/S 684 mmHg 66%
    03:00 +19°C° 0 mm 3 m/S 684 mmHg 66%
    04:00 +19°C° 0 mm 3 m/S 684 mmHg 66%
    05:00 +19°C° 0 mm 3 m/S 684 mmHg 64%
    06:00 +19°C° 0 mm 4 m/S 684 mmHg 62%
    07:00 +19°C° 0 mm 4 m/S 685 mmHg 61%
    08:00 +20°C° 0 mm 5 m/S 685 mmHg 54%
    09:00 +22°C° 0 mm 6 m/S 686 mmHg 47%
    10:00 +23°C° 0 mm 6 m/S 686 mmHg 40%
    11:00 +24°C° 0 mm 7 m/S 686 mmHg 39%
    12:00 +26°C° 0 mm 7 m/S 686 mmHg 38%
    13:00 +27°C° 0 mm 7 m/S 686 mmHg 37%
    14:00 +27°C° 0 mm 7 m/S 686 mmHg 37%
    15:00 +27°C° 0 mm 7 m/S 686 mmHg 36%
    16:00 +28°C° 0 mm 7 m/S 686 mmHg 36%
    17:00 +27°C° 0 mm 7 m/S 686 mmHg 38%
    18:00 +26°C° 0 mm 7 m/S 686 mmHg 40%
    19:00 +26°C° 0 mm 7 m/S 686 mmHg 42%
    20:00 +23°C° 0 mm 6 m/S 687 mmHg 46%
    21:00 +22°C° 0 mm 5 m/S 687 mmHg 50%
    22:00 +21°C° 0 mm 5 m/S 687 mmHg 54%
    23:00 +21°C° 0 mm 4 m/S 687 mmHg 55%

    28 Juli, Freitag

    Zeit Temperatur Niederschläge Wind Luftdruck Luftfeuchtigkeit
    00:00 +20°C° 0 mm 4 m/S 687 mmHg 55%
    01:00 +20°C° 0 mm 3 m/S 687 mmHg 56%
    02:00 +20°C° 0 mm 3 m/S 687 mmHg 56%
    03:00 +19°C° 0 mm 2 m/S 686 mmHg 57%
    04:00 +19°C° 0 mm 2 m/S 686 mmHg 58%
    05:00 +19°C° 0 mm 2 m/S 687 mmHg 55%
    06:00 +19°C° 0 mm 2 m/S 687 mmHg 52%
    07:00 +20°C° 0 mm 2 m/S 687 mmHg 50%
    08:00 +21°C° 0 mm 2 m/S 688 mmHg 43%
    09:00 +24°C° 0 mm 2 m/S 688 mmHg 36%
    10:00 +25°C° 0 mm 2 m/S 689 mmHg 29%
    11:00 +27°C° 0 mm 2 m/S 689 mmHg 25%
    12:00 +28°C° 0 mm 2 m/S 689 mmHg 22%
    13:00 +29°C° 0 mm 2 m/S 689 mmHg 18%
    14:00 +30°C° 0 mm 2 m/S 689 mmHg 17%
    15:00 +30°C° 0 mm 2 m/S 689 mmHg 16%
    16:00 +31°C° 0 mm 2 m/S 689 mmHg 14%
    17:00 +31°C° 0 mm 2 m/S 689 mmHg 15%
    18:00 +31°C° 0 mm 2 m/S 689 mmHg 15%
    19:00 +31°C° 0 mm 3 m/S 689 mmHg 16%
    20:00 +30°C° 0 mm 3 m/S 689 mmHg 20%
    21:00 +29°C° 0 mm 3 m/S 690 mmHg 24%
    22:00 +28°C° 0 mm 3 m/S 690 mmHg 27%
    23:00 +27°C° 0 mm 3 m/S 690 mmHg 34%
    Mehr zeigen